Regional Weather Roundup
Issued by NWS

Home | Current Version | Previous Version | Text Only | Print | Product List | Glossary On
Versions: 1 2 3 4 5 6 7 8 9 10 11 12 13 14 15 16 17 18 19 20 21 22 23 24 25 26 27 28 29 30 31 32 33 34 35 36 37 38 39 40 41 42 43 44 45 46 47 48 49 50
000
ASUS44 KFWD 192303
RWRTX
NORTH TEXAS HOURLY WEATHER ROUNDUP
NATIONAL WEATHER SERVICE FORT WORTH TX
600 PM CDT THU OCT 19 2017

NOTE: "FAIR" INDICATES FEW OR NO CLOUDS BELOW 12,000 FEET WITH NO
SIGNIFICANT WEATHER AND/OR OBSTRUCTIONS TO VISIBILITY.

TXZ118-119-200000-
DALLAS/FORT WORTH METROPLEX

CITY           SKY/WX    TMP DP  RH WIND       PRES   REMARKS
DFW AIRPORT    MOCLDY    80  52  37 SE10      30.05S
DALLAS LOVE    MOCLDY    81  50  33 SE15      30.05F
FTW MEACHAM    PTCLDY    80  52  37 SE12      30.05S
DAL-EXECUTIVE  CLEAR     79  54  41 SE12      30.06S
FTW-ALLIANCE   MOCLDY    78  48  34 SE14      30.05F
FTW-NAS-JRB    MOCLDY    80  51  36 SE9       30.05F
FTW-SPINKS     CLEAR     81  48  32 E9        30.07S
ARLINGTON      CLEAR     79  55  43 E8        30.05F
GRAND PRAIRIE  CLEAR     81  52  36 E8        30.07F
ADDISON        CLEAR     81  52  36 MISG      30.06F
MESQUITE       CLEAR     81  50  34 E8        30.07S
LANCASTER      CLEAR     80  55  42 SE10      30.07S
$$

TXZ091>094-102>105-117-120-121-131>134-200000-
NORTH CENTRAL TEXAS

CITY           SKY/WX    TMP DP  RH WIND       PRES   REMARKS
SHRMAN/DENISON CLEAR     77  42  28 SE10      30.08S
GAINESVILLE    PTCLDY    75  47  36 SE10      30.09S
BOWIE          PTCLDY    75  50  40 SE6       30.06S
BRIDGEPORT     PTCLDY    78  49  36 SE9       30.07S
DECATUR        PTCLDY    76  50  39 SE8       30.06R
DENTON         CLEAR     77  52  41 SE10      30.06S
MCKINNEY       CLEAR     78  56  46 SE10      30.07S
BONHAM         CLEAR     77  46  33 SE10      30.08F
ROCKWALL       CLEAR     78  58  49 E8G17     30.07F
TERRELL        CLEAR     80  48  32 SE13      30.08S
WAXAHACHIE     CLEAR     80  55  43 E8        30.08S
CLEBURNE       PTCLDY    81  54  39 S8G15     30.07S
GRANBURY       MOSUNNY   80  48  33 SE8       30.06S
$$

TXZ083>090-098>101-113>116-127>130-139>142-154-155-200000-
WESTERN NORTH TEXAS

CITY           SKY/WX    TMP DP  RH WIND       PRES   REMARKS
WICHITA FALLS  MOSUNNY   76  47  35 SE14      30.03S
WF-KICKAPOO    MOSUNNY   77  50  38 SE13G18   30.06S
VERNON         PTSUNNY   80  40  24 SE13      30.03S
ABILENE        MOSUNNY   76  48  37 SE13      30.03F
BRECKENRIDGE   PTSUNNY   80  45  29 SE9       30.03S HAZE
EASTLAND       CLOUDY    77  51  40 SE10      30.04S
RANGER         CLOUDY    76  50  40 SE13G20   30.06S
MINERAL WELLS  MOSUNNY   78  52  40 SE12      30.04S
STEPHENVILLE   CLOUDY    80  50  35 SE6       30.09S
COMANCHE       MOSUNNY   77  53  42 SE14      30.05F
BROWNWOOD      CLOUDY    77  52  41 SE13G18   30.05S
COLEMAN        CLOUDY    79  51  37 SE17      30.04F
$$

TXZ143>147-156>162-174-175-200000-
CENTRAL TEXAS

CITY           SKY/WX    TMP DP  RH WIND       PRES   REMARKS
WACO           PTCLDY    82  56  40 SE10      30.05F
WACO-TSTC      CLEAR     82  54  36 SE7       30.05F
WACO-MCGREGOR  PTCLDY    81  57  43 SE10      30.06S
HILLSBORO      CLEAR     81  53  36 SE9       30.06S
CORSICANA      PTCLDY    79  55  43 SE9       30.08S
MEXIA          CLOUDY    79  58  47 E7        30.06S
HEARNE         CLOUDY    81  59  46 E3        30.06S
CAMERON        PTCLDY    81  60  48 SE5       30.06S
TEMPLE         MOSUNNY   81  58  45 SE13      30.06S
KILLEEN        SUNNY     79  56  45 SE10      30.05S
KILLEEN-SKYLRK CLOUDY    79  58  48 SE12      30.06S
FORT HOOD      MOSUNNY   79  55  44 SE10      30.03S
GATESVILLE     CLOUDY    79  54  41 SE7       30.08S
HAMILTON       MOSUNNY   77  54  43 S9        30.08R
LAMPASAS       CLOUDY    78  58  50 S6        30.06S
$$

TXZ095>097-106>112-122>126-135>138-148>153-164>167-200000-
EAST TEXAS

CITY           SKY/WX    TMP DP  RH WIND       PRES   REMARKS
PARIS          CLEAR     77  51  40 E9        30.10S
SULPHUR SPRNGS CLEAR     78  50  37 E9        30.11S
MOUNT PLEASANT CLEAR     77  52  41 E8        30.11F
GILMER         CLOUDY    77  55  45 E3        30.10S
MINEOLA        CLEAR     79  52  38 SE5       30.09S
TYLER          CLEAR     78  50  37 SE10      30.09S
LONGVIEW       CLEAR     79  55  43 E10       30.09F
MARSHALL       CLEAR     76  51  41 E3        30.13S
ATHENS         CLOUDY    77  52  41 SE6       30.07S
PALESTINE      CLEAR     80  59  48 SE6       30.09S
JACKSONVILLE   CLEAR     77  53  43 SE3       30.11F
HENDERSON      CLEAR     77  55  45 E6        30.10F
CENTER         CLEAR     78  59  50 CALM      30.12S
NACOGDOCHES    CLOUDY    76  58  53 SE8       30.11S
LUFKIN         CLOUDY    76  58  53 E6        30.10F
$$

SUPPLEMENTAL OBSERVATIONS (NWS FORT WORTH AREA)

CITY           SKY/WX    TMP DP  RH WIND       PRES   REMARKS
$$

SUPPLEMENTAL OBSERVATIONS (NWS NORMAN AREA)

CITY           SKY/WX    TMP DP  RH WIND       PRES   REMARKS
GOODLETT         N/A     78  46  33 SE13      30.00F
ODELL            N/A     78  50  37 SE12      30.03S
CROWELL          N/A     77  48  35 SE12      30.02F
KNOX CITY        N/A     78  42  27 SE14      30.02S
SEYMOUR          N/A     77  44  30 SE13      30.03S
$$

SUPPLEMENTAL OBSERVATIONS (NWS SAN ANGELO AREA)

CITY           SKY/WX    TMP DP  RH WIND       PRES   REMARKS
WEINERT          N/A     78  49  35 SE10      30.02F
HASKELL          N/A     77  42  28 SE8       30.02F
THROCKMORTON     N/A     77  49  37 SE8       30.04S
STAMFORD         N/A     79  48  33 SE10      30.03F
CLYDE            N/A     75  48  38 SE8       30.06S
$$

SUPPLEMENTAL OBSERVATIONS (NWS SHREVEPORT AREA)

CITY           SKY/WX    TMP DP  RH WIND       PRES   REMARKS
$$

SUPPLEMENTAL OBSERVATIONS ARE A COLLECTION OF AUTOMATED INSTRUMENTS
THAT ARE MAINTAINED BY A VARIETY OF FEDERAL AND STATE AGENCIES.
CERTAIN ELEMENTS...SUCH AS HUMIDITY VALUES AND SUSTAINED WIND
SPEEDS...MAY BE APPROXIMATED.




USA.gov is the U.S. government's official web portal to all federal, state and local government web resources and services.